{"data":{"norad_id":46553,"epoch":"2026-05-25T03:06:54.999072Z","epoch_age_seconds":53974,"freshness":"FRESH","line1":"1 46553U 20070X   26145.12980323  .00066129  00000+0  12555-2 0  9991","line2":"2 46553  53.0437 129.5701 0005692  41.2548 318.8888 15.47684758311923","mean_motion":15.47684758,"eccentricity":0.0005692,"inclination_deg":53.0437,"raan_deg":129.5701,"arg_perigee_deg":41.2548,"mean_anomaly_deg":318.8888,"bstar":0.0012555,"rev_number":31192,"period_min":93.04220336581,"perigee_km":419.62935568754,"apogee_km":427.37234021365,"semimajor_km":6801.6378479506,"source":"CELESTRAK","updated_at":"2026-05-25T13:38:16.510229Z"}}